OH6DL-15 Weather Reports


time (UTC)temp
C
wind
direction
speed
KPH
gust
KPH
rain 1hr
cm
rain 24hr
cm
rain mn
cm
humidity
%
barometer
mb
20260508101803 11 303 3.2 12.9 0.00 0.00 0.00 40 1024.6
20260508100903 11 330 3.2 9.7 0.00 0.00 0.00 38 1024.9
20260508100003 11 311 3.2 11.3 0.00 0.00 0.00 37 1024.9
20260508095403 11 317 3.2 11.3 0.00 0.00 0.00 38 1024.7
20260508094503 10 307 4.8 11.3 0.00 0.00 0.00 38 1024.8
20260508093603 10 302 6.4 6.4 0.00 0.00 0.00 42 1024.5
20260508092915 10 311 4.8 9.7 0.00 0.00 0.00 41 1024.7
20260508091803 11 308 6.4 11.3 0.00 0.00 0.00 42 1024.7
20260508090903 10 312 6.4 11.3 0.00 0.00 0.00 49 1024.7
20260508090004 10 307 3.2 6.4 0.00 0.00 0.00 45 1024.7
20260508085403 10 301 3.2 9.7 0.00 0.00 0.00 43 1024.6
20260508084716 10 303 4.8 9.7 0.00 0.00 0.00 40 1024.6
20260508083603 10 322 3.2 12.9 0.00 0.00 0.00 44 1024.6
20260508082703 10 298 3.2 9.7 0.00 0.00 0.00 50 1024.6
20260508081803 9 290 3.2 6.4 0.00 0.00 0.00 50 1024.6
20260508081116 9 292 3.2 9.7 0.00 0.00 0.00 52 1024.5
20260508080004 8 296 4.8 6.4 0.00 0.00 0.00 58 1024.5
20260508075403 8 294 3.2 6.4 0.00 0.00 0.00 58 1024.4
20260508074504 8 300 4.8 6.4 0.00 0.00 0.00 61 1024.3
20260508073603 8 298 3.2 6.4 0.00 0.00 0.00 63 1024.3
20260508072703 7 294 4.8 6.4 0.00 0.00 0.00 63 1024.3
20260508071803 7 299 3.2 6.4 0.00 0.00 0.00 63 1024.2
20260508070903 7 296 3.2 6.4 0.00 0.00 0.00 63 1024.1
20260508070004 7 299 3.2 6.4 0.00 0.00 0.00 65 1024.1
20260508065403 7 297 3.2 6.4 0.00 0.00 0.00 67 1024.0
20260508064713 7 289 1.6 3.2 0.00 0.00 0.00 66 1023.8
20260508063603 6 296 3.2 6.4 0.00 0.00 0.00 70 1024.2
20260508062703 6 294 4.8 6.4 0.00 0.00 0.00 70 1023.8
20260508061803 6 303 3.2 6.4 0.00 0.00 0.00 72 1023.7
20260508060903 6 296 3.2 6.4 0.00 0.00 0.00 73 1023.8
20260508060004 5 294 4.8 6.4 0.00 0.00 0.00 73 1023.7
20260508055403 5 293 4.8 6.4 0.00 0.00 0.00 75 1023.7
20260508054503 5 294 3.2 6.4 0.00 0.00 0.00 76 1023.5
20260508053603 5 303 1.6 6.4 0.00 0.00 0.00 75 1023.4
20260508052703 4 306 3.2 6.4 0.00 0.00 0.00 76 1023.3
20260508052015 4 303 3.2 6.4 0.00 0.00 0.00 76 1023.3
20260508050903 4 298 1.6 6.4 0.00 0.00 0.00 78 1023.1
20260508050215 3 295 3.2 6.4 0.00 0.00 0.00 79 1023.0
20260508045403 3 293 3.2 6.4 0.00 0.00 0.00 79 1023.0
20260508044714 3 285 1.6 3.2 0.00 0.00 0.00 79 1022.7
20260508043603 3 310 1.6 3.2 0.00 0.00 0.00 81 1022.9
20260508042704 2 315 1.6 3.2 0.00 0.00 0.00 83 1022.7
20260508041804 2 297 1.6 3.2 0.00 0.00 0.00 83 1022.7
20260508040903 2 292 0.0 3.2 0.00 0.00 0.00 84 1022.6
20260508040003 2 292 0.0 3.2 0.00 0.00 0.00 85 1022.5
20260508035403 2 292 0.0 3.2 0.00 0.00 0.00 85 1022.5
20260508034503 1 308 0.0 3.2 0.00 0.00 0.00 85 1022.3
20260508033603 1 315 1.6 3.2 0.00 0.00 0.00 86 1022.2
20260508032703 1 315 0.0 3.2 0.00 0.00 0.00 86 1022.2
20260508031803 1 315 0.0 3.2 0.00 0.00 0.00 85 1022.0
20260508030903 1 315 0.0 3.2 0.00 0.00 0.00 85 1022.0
20260508030003 1 315 0.0 3.2 0.00 0.00 0.00 84 1022.0
20260508025403 1 315 1.6 3.2 0.00 0.00 0.00 84 1021.9
20260508024715 1 315 1.6 3.2 0.00 0.00 0.00 84 1021.8
20260508023603 1 315 1.6 3.2 0.00 0.00 0.00 84 1021.5
20260508022703 1 315 1.6 3.2 0.00 0.00 0.00 85 1021.6
20260508021803 1 334 1.6 3.2 0.00 0.00 0.00 85 1021.4
20260508021114 1 337 1.6 3.2 0.00 0.00 0.00 85 1021.4
20260508020004 1 337 1.6 3.2 0.00 0.00 0.00 85 1021.3
20260508015403 1 337 1.6 3.2 0.00 0.00 0.00 85 1021.1
20260508014503 1 337 1.6 3.2 0.00 0.00 0.00 85 1021.0
20260508013603 1 335 1.6 3.2 0.00 0.00 0.00 85 1021.0
20260508012916 1 337 1.6 3.2 0.00 0.00 0.00 85 1020.7
20260508011803 1 337 1.6 6.4 0.00 0.00 0.00 85 1020.7
20260508011115 1 336 1.6 6.4 0.00 0.00 0.00 84 1020.7
20260508010003 1 337 1.6 3.2 0.00 0.00 0.00 83 1020.6
20260508005403 1 339 1.6 3.2 0.00 0.00 0.00 81 1020.4
20260508004716 1 345 0.0 6.4 0.00 0.00 0.00 80 1020.4
20260508003604 2 346 3.2 6.4 0.00 0.00 0.00 79 1020.3
20260508002703 2 337 1.6 3.2 0.00 0.00 0.00 81 1020.2
20260508001804 2 337 0.0 3.2 0.00 0.00 0.00 80 1020.0
20260508000903 2 337 1.6 3.2 0.00 0.00 0.00 78 1020.1
20260508000219 2 340 1.6 3.2 0.00 0.00 0.00 79 1020.1
20260507235403 2 337 3.2 6.4 0.00 0.00 0.00 78 1019.8
20260507234503 2 341 3.2 6.4 0.00 0.00 0.00 78 1019.7
20260507233814 2 342 3.2 6.4 0.00 0.00 0.00 76 1019.8
20260507232703 2 318 1.6 3.2 0.00 0.00 0.00 78 1019.6
20260507231803 2 316 1.6 3.2 0.00 0.00 0.00 77 1019.5
20260507230903 2 349 1.6 6.4 0.00 0.00 0.00 74 1019.6
20260507230004 2 340 3.2 6.4 0.00 0.00 0.00 73 1019.3
20260507225403 2 342 3.2 6.4 0.00 0.00 0.00 73 1019.3
20260507224712 3 345 0.0 3.2 0.00 0.00 0.00 73 1019.0
20260507223603 3 359 1.6 6.4 0.00 0.00 0.00 70 1019.2
20260507222703 3 351 1.6 9.7 0.00 0.00 0.00 69 1019.0
20260507221803 3 358 3.2 9.7 0.00 0.00 0.00 69 1018.9
20260507220903 3 347 3.2 9.7 0.00 0.00 0.00 68 1019.0
20260507220003 3 355 3.2 6.4 0.00 0.00 0.00 67 1019.1
20260507215403 3 1 3.2 6.4 0.00 0.00 0.00 67 1018.9
20260507214503 3 19 1.6 9.7 0.00 0.00 0.00 66 1019.0
20260507213603 3 6 3.2 9.7 0.00 0.00 0.00 65 1018.5
20260507212703 3 12 1.6 9.7 0.00 0.00 0.00 64 1018.5
20260507211803 3 18 1.6 9.7 0.00 0.00 0.00 63 1018.4
20260507211113 3 16 1.6 6.4 0.00 0.00 0.00 63 1018.3
20260507210004 4 19 3.2 11.3 0.00 0.00 0.00 62 1018.4
20260507205403 4 17 0.0 11.3 0.00 0.00 0.00 61 1018.1
20260507204503 4 8 0.0 9.7 0.00 0.00 0.00 61 1017.9
20260507203603 5 346 3.2 9.7 0.00 0.00 0.00 60 1017.9
20260507202703 5 342 3.2 9.7 0.00 0.00 0.00 60 1017.9
20260507201803 5 349 3.2 17.7 0.00 0.00 0.00 58 1017.7
20260507200903 5 346 3.2 17.7 0.00 0.00 0.00 57 1017.7
20260507200003 5 345 3.2 11.3 0.00 0.00 0.00 56 1017.4
20260507195403 5 343 3.2 9.7 0.00 0.00 0.00 55 1017.4
20260507194503 6 350 3.2 11.3 0.00 0.00 0.00 54 1017.2
20260507193817 6 351 3.2 11.3 0.00 0.00 0.00 53 1017.2
20260507192703 6 5 1.6 6.4 0.00 0.00 0.00 52 1017.1
20260507191803 6 17 1.6 9.7 0.00 0.00 0.00 51 1016.7
20260507191114 6 12 0.0 11.3 0.00 0.00 0.00 51 1016.5
20260507190004 7 359 3.2 17.7 0.00 0.00 0.00 50 1016.8
20260507185403 7 40 3.2 12.9 0.00 0.00 0.00 50 1016.4
20260507184503 7 5 1.6 12.9 0.00 0.00 0.00 48 1016.4
20260507183603 7 349 3.2 17.7 0.00 0.00 0.00 48 1016.1
20260507182915 7 350 8.0 17.7 0.00 0.00 0.00 46 1016.3
20260507182017 8 1 6.4 22.5 0.00 0.00 0.00 46 1016.1
20260507180903 8 340 6.4 20.9 0.00 0.00 0.00 46 1016.0
20260507180003 8 328 6.4 12.9 0.00 0.00 0.00 50 1015.7
20260507175613 8 324 4.8 11.3 0.00 0.00 0.00 49 1015.8
20260507174716 8 319 4.8 11.3 0.00 0.00 0.00 47 1015.6
20260507173603 8 318 6.4 12.9 0.00 0.00 0.00 47 1015.6
20260507172703 9 315 4.8 17.7 0.00 0.00 0.00 45 1015.3
20260507171803 9 317 6.4 14.5 0.00 0.00 0.00 49 1015.5
20260507170903 10 315 4.8 11.3 0.00 0.00 0.00 44 1015.2
20260507170217 10 319 6.4 11.3 0.00 0.00 0.00 45 1014.9
20260507165614 10 313 4.8 14.5 0.00 0.00 0.00 49 1015.1
20260507164503 10 312 4.8 12.9 0.00 0.00 0.00 49 1014.8
20260507163603 10 305 8.0 12.9 0.00 0.00 0.00 46 1015.0
20260507162916 9 304 6.4 14.5 0.00 0.00 0.00 51 1014.9
20260507161803 9 312 6.4 9.7 0.00 0.00 0.00 47 1014.8
20260507160903 10 318 3.2 9.7 0.00 0.00 0.00 53 1014.7
20260507160004 10 317 3.2 9.7 0.00 0.00 0.00 46 1014.7
20260507155403 10 314 6.4 14.5 0.00 0.00 0.00 43 1014.5
20260507154717 10 313 4.8 14.5 0.00 0.00 0.00 44 1014.7
20260507153603 10 314 3.2 9.7 0.00 0.00 0.00 42 1014.6
20260507152703 11 308 4.8 12.9 0.00 0.00 0.00 40 1014.6
20260507151803 10 313 6.4 9.7 0.00 0.00 0.00 45 1014.3
20260507150903 10 309 4.8 17.7 0.00 0.00 0.00 42 1014.4
20260507150214 10 303 6.4 17.7 0.00 0.00 0.00 42 1014.4
20260507145403 10 307 6.4 14.5 0.00 0.00 0.00 42 1014.5
20260507144503 10 303 8.0 14.5 0.00 0.00 0.00 41 1014.5
20260507143603 10 313 11.3 17.7 0.00 0.00 0.00 42 1014.4
20260507142703 10 310 6.4 14.5 0.00 0.00 0.00 44 1014.4
20260507141803 10 313 4.8 14.5 0.00 0.00 0.00 47 1014.4
20260507140903 10 313 6.4 17.7 0.00 0.00 0.00 45 1014.4
20260507140003 10 310 6.4 6.4 0.00 0.00 0.00 49 1014.2
20260507135616 10 313 3.2 6.4 0.00 0.00 0.00 46 1014.4
20260507134503 10 313 3.2 9.7 0.00 0.00 0.00 44 1014.4
20260507133603 10 322 3.2 11.3 0.00 0.00 0.00 47 1014.5
20260507132703 10 322 6.4 14.5 0.00 0.00 0.00 47 1014.2
20260507131803 10 319 4.8 12.9 0.00 0.00 0.00 45 1014.1
20260507130903 10 321 6.4 12.9 0.00 0.00 0.00 46 1014.3
20260507130003 10 311 6.4 11.3 0.00 0.00 0.00 48 1014.1
20260507125403 10 314 4.8 11.3 0.00 0.00 0.00 43 1014.2
20260507124714 10 318 6.4 14.5 0.00 0.00 0.00 42 1014.2
20260507123603 10 311 4.8 11.3 0.00 0.00 0.00 37 1014.0
20260507122705 11 272 3.2 6.4 0.00 0.00 0.00 38 1014.0
20260507122016 10 287 3.2 6.4 0.00 0.00 0.00 33 1014.1
20260507121113 10 272 3.2 6.4 0.00 0.00 0.00 33 1014.2
20260507120004 11 289 1.6 6.4 0.00 0.00 0.00 32 1014.1
20260507115403 10 289 3.2 6.4 0.00 0.00 0.00 33 1014.1
20260507114503 10 310 3.2 6.4 0.00 0.00 0.00 33 1014.4
20260507113603 11 302 3.2 6.4 0.00 0.00 0.00 34 1014.3
20260507112914 11 321 3.2 6.4 0.00 0.00 0.00 31 1014.2
20260507112017 11 319 3.2 6.4 0.00 0.00 0.00 32 1014.2
20260507110903 11 317 3.2 6.4 0.00 0.00 0.00 30 1014.3
20260507110003 11 304 3.2 6.4 0.00 0.00 0.00 31 1014.4
20260507105403 11 320 3.2 6.4 0.00 0.00 0.00 33 1014.2
20260507104504 11 304 3.2 6.4 0.00 0.00 0.00 36 1014.0
20260507103603 10 288 3.2 6.4 0.00 0.00 0.00 31 1014.4
20260507102703 11 300 3.2 6.4 0.00 0.00 0.00 31 1014.1